This is the latest recevied weather packets stored in our database for station/object WA9SDJ-13. If no packets are shown the sender has not sent any weather packets the latest 10 day(s).
| Time | Temp. | Humidity | Pressure | Rain* | Wind** | Luminosity | Snow |
|---|---|---|---|---|---|---|---|
| 1778355944 | 23.33° C | 61% | 1006.9 hPa | 0 mm | - | 853 W/m² | - |
| 1778355884 | 23.33° C | 65% | 1006.9 hPa | 0 mm | - | 853 W/m² | - |
| 1778355824 | 23.33° C | 61% | 1006.9 hPa | 0 mm | - | 855 W/m² | - |
| 1778355764 | 23.33° C | 64% | 1006.9 hPa | 0 mm | - | 856 W/m² | - |
| 1778355704 | 23.33° C | 63% | 1006.9 hPa | 0 mm | - | 858 W/m² | - |
| 1778355642 | 23.33° C | 63% | 1006.9 hPa | 0 mm | - | 863 W/m² | - |
| 1778355583 | 23.33° C | 61% | 1006.9 hPa | 0 mm | - | 863 W/m² | - |
| 1778355523 | 23.33° C | 64% | 1006.9 hPa | 0 mm | - | 867 W/m² | - |
| 1778355463 | 23.33° C | 65% | 1006.9 hPa | 0 mm | - | 867 W/m² | - |
| 1778355404 | 22.78° C | 63% | 1006.9 hPa | 0 mm | - | 867 W/m² | - |
| 1778355344 | 22.78° C | 63% | 1006.9 hPa | 0 mm | - | 867 W/m² | - |
| 1778355283 | 22.78° C | 64% | 1006.9 hPa | 0 mm | - | 874 W/m² | - |
| 1778355223 | 22.78° C | 64% | 1006.9 hPa | 0 mm | - | 874 W/m² | - |
| 1778355164 | 22.78° C | 67% | 1006.9 hPa | 0 mm | - | 876 W/m² | - |
| 1778355104 | 22.78° C | 63% | 1006.9 hPa | 0 mm | - | 877 W/m² | - |
| 1778355044 | 22.78° C | 65% | 1006.9 hPa | 0 mm | - | 879 W/m² | - |
| 1778354983 | 22.78° C | 63% | 1006.9 hPa | 0 mm | - | 883 W/m² | - |
| 1778354923 | 22.78° C | 66% | 1006.9 hPa | 0 mm | - | 883 W/m² | - |
| 1778354863 | 22.78° C | 64% | 1006.9 hPa | 0 mm | - | 884 W/m² | - |
| 1778354803 | 22.78° C | 64% | 1006.9 hPa | 0 mm | - | 884 W/m² | - |
| 1778354743 | 22.78° C | 63% | 1006.8 hPa | 0 mm | - | 886 W/m² | - |
| 1778354683 | 22.78° C | 64% | 1006.8 hPa | 0 mm | - | 888 W/m² | - |
| 1778354623 | 22.78° C | 66% | 1006.9 hPa | 0 mm | - | 890 W/m² | - |
| 1778354563 | 22.78° C | 65% | 1006.8 hPa | 0 mm | - | 890 W/m² | - |
| 1778354503 | 22.78° C | 66% | 1006.9 hPa | 0 mm | - | 890 W/m² | - |
* Rain latest hour (hover to see other rain measurements)
** Current wind speed in m/s (hover to see current wind gust speed)